EXS41FZ LPPR-EGCC

Flight info

Callsign EXS41FZ
Flight time 2h 16m
Altitude 36000
Route TURON P600 ASDEB DCT KORUL DCT KOLEK DCT EBOMO DCT RUSIB DCT NOZHU DCT SHIRI DCT TOJAQ DCT EPACE DCT ACCOP DCT MOCQO P16 AXCIS
Aircraft B738/M-SDE2E3FGHIRWXY/LB1

Departure

Time 2026-05-06 20:41
Airport Francisco de Sá Carneiro Airport (LPPR)

Arrival

Time 2026-05-06 22:57
Airport Manchester Airport (EGCC)
Time Latitude Longitude Altitude Speed Heading
2026-05-06 19:34 41.23731 -8.67267 256 ft 0 kts 73°
2026-05-06 20:27 41.23728 -8.67277 257 ft 4 kts 73°
2026-05-06 20:27 41.23720 -8.67312 257 ft 4 kts 73°
2026-05-06 20:27 41.23714 -8.67340 257 ft 4 kts 84°
2026-05-06 20:28 41.23716 -8.67374 257 ft 4 kts 109°
2026-05-06 20:28 41.23724 -8.67399 257 ft 0 kts 125°
2026-05-06 20:34 41.23721 -8.67393 257 ft 1 kts 126°
2026-05-06 20:34 41.23709 -8.67374 257 ft 4 kts 131°
2026-05-06 20:34 41.23684 -8.67350 257 ft 5 kts 152°
2026-05-06 20:34 41.23644 -8.67333 258 ft 7 kts 168°
2026-05-06 20:35 41.23594 -8.67337 258 ft 8 kts 200°
2026-05-06 20:35 41.23549 -8.67369 260 ft 6 kts 213°
2026-05-06 20:35 41.23506 -8.67388 261 ft 7 kts 184°
2026-05-06 20:35 41.23440 -8.67375 261 ft 12 kts 166°
2026-05-06 20:36 41.23352 -8.67386 262 ft 13 kts 221°
2026-05-06 20:36 41.23325 -8.67483 267 ft 10 kts 256°
2026-05-06 20:36 41.23313 -8.67569 271 ft 9 kts 259°
2026-05-06 20:36 41.23309 -8.67599 273 ft 0 kts 258°
2026-05-06 20:39 41.23308 -8.67599 273 ft 1 kts 258°
2026-05-06 20:39 41.23303 -8.67634 275 ft 8 kts 258°
2026-05-06 20:39 41.23322 -8.67725 276 ft 13 kts 318°
2026-05-06 20:39 41.23364 -8.67748 275 ft 0 kts 347°
2026-05-06 20:40 41.23366 -8.67748 275 ft 1 kts 347°
2026-05-06 20:40 41.23519 -8.67788 267 ft 60 kts 349°
2026-05-06 20:40 41.24199 -8.67966 247 ft 135 kts 349°
2026-05-06 20:40 41.25286 -8.68267 520 ft 170 kts 348°
2026-05-06 20:41 41.26399 -8.68589 1620 ft 158 kts 348°
2026-05-06 20:41 41.27466 -8.68888 2448 ft 162 kts 349°
2026-05-06 20:41 41.28613 -8.69154 3051 ft 173 kts 351°
2026-05-06 20:41 41.29910 -8.69458 3288 ft 204 kts 350°
2026-05-06 20:42 41.31371 -8.69824 3484 ft 226 kts 349°
2026-05-06 20:42 41.32958 -8.70235 3907 ft 234 kts 349°
2026-05-06 20:42 41.34577 -8.70662 4413 ft 240 kts 349°
2026-05-06 20:42 41.36236 -8.71105 4955 ft 245 kts 349°
2026-05-06 20:43 41.37902 -8.71552 5478 ft 250 kts 348°
2026-05-06 20:43 41.39635 -8.72019 5891 ft 262 kts 348°
2026-05-06 20:43 41.41473 -8.72516 6402 ft 275 kts 348°
2026-05-06 20:43 41.43396 -8.72644 7049 ft 281 kts
2026-05-06 20:44 41.45319 -8.72135 7808 ft 283 kts 12°
2026-05-06 20:44 41.47265 -8.71596 8508 ft 289 kts 12°
2026-05-06 20:44 41.49241 -8.71062 9289 ft 292 kts 12°
2026-05-06 20:44 41.51258 -8.70530 9961 ft 298 kts 11°
2026-05-06 20:45 41.53345 -8.69992 10341 ft 314 kts 11°
2026-05-06 20:45 41.55570 -8.69425 10540 ft 336 kts 11°
2026-05-06 20:45 41.57904 -8.68834 11036 ft 345 kts 11°
2026-05-06 20:45 41.60250 -8.68240 11748 ft 348 kts 11°
2026-05-06 20:46 41.62663 -8.67627 12537 ft 350 kts 11°
2026-05-06 20:46 41.65036 -8.67021 13287 ft 353 kts 11°
2026-05-06 20:46 41.67465 -8.66401 14013 ft 357 kts 11°
2026-05-06 20:46 41.69912 -8.65775 14699 ft 360 kts 10°
2026-05-06 20:47 41.72397 -8.65140 15376 ft 365 kts 10°
2026-05-06 20:47 41.74903 -8.64498 16050 ft 369 kts 11°
2026-05-06 20:47 41.77440 -8.63849 16717 ft 374 kts 10°
2026-05-06 20:47 41.80020 -8.63188 17357 ft 378 kts 10°
2026-05-06 20:48 41.82608 -8.62524 18192 ft 379 kts 10°
2026-05-06 20:48 41.85216 -8.61855 18718 ft 385 kts 10°
2026-05-06 20:48 41.87864 -8.61176 19279 ft 389 kts 11°
2026-05-06 20:48 41.90520 -8.60493 19964 ft 389 kts 11°
2026-05-06 20:49 41.93193 -8.59806 20540 ft 393 kts 11°
2026-05-06 20:49 41.95896 -8.59110 21079 ft 397 kts 11°
2026-05-06 20:49 41.98593 -8.58416 21636 ft 401 kts 11°
2026-05-06 20:49 42.01340 -8.57708 22190 ft 405 kts 11°
2026-05-06 20:50 42.04116 -8.56991 22729 ft 408 kts 11°
2026-05-06 20:50 42.06916 -8.56271 23267 ft 411 kts 10°
2026-05-06 20:50 42.09758 -8.55690 23750 ft 415 kts
2026-05-06 20:50 42.12640 -8.55235 23944 ft 417 kts
2026-05-06 20:51 42.15533 -8.54821 23955 ft 417 kts
2026-05-06 20:51 42.18418 -8.54410 23955 ft 416 kts
2026-05-06 20:51 42.21310 -8.53984 24054 ft 421 kts
2026-05-06 20:51 42.24237 -8.53538 24495 ft 423 kts
2026-05-06 20:52 42.27161 -8.53082 25030 ft 423 kts
2026-05-06 20:52 42.30089 -8.52620 25497 ft 425 kts
2026-05-06 20:52 42.33003 -8.52157 25875 ft 429 kts
2026-05-06 20:52 42.35977 -8.51684 26322 ft 431 kts
2026-05-06 20:53 42.38971 -8.51208 26608 ft 437 kts
2026-05-06 20:53 42.42002 -8.50726 27031 ft 439 kts
2026-05-06 20:53 42.45055 -8.50241 27378 ft 443 kts
2026-05-06 20:53 42.48129 -8.49751 27862 ft 444 kts
2026-05-06 20:54 42.51192 -8.49062 28163 ft 449 kts 14°
2026-05-06 20:54 42.54138 -8.47722 28617 ft 449 kts 24°
2026-05-06 20:54 42.56972 -8.45924 28904 ft 453 kts 26°
2026-05-06 20:54 42.59817 -8.44031 29275 ft 455 kts 27°
2026-05-06 20:55 42.62665 -8.42114 29609 ft 458 kts 27°
2026-05-06 20:55 42.65524 -8.40195 29993 ft 459 kts 27°
2026-05-06 20:55 42.68403 -8.38277 30262 ft 462 kts 26°
2026-05-06 20:55 42.71266 -8.36385 30583 ft 463 kts 26°
2026-05-06 20:56 42.74149 -8.34489 31150 ft 457 kts 26°
2026-05-06 20:56 42.77002 -8.32616 31509 ft 457 kts 26°
2026-05-06 20:56 42.79888 -8.30724 31702 ft 461 kts 26°
2026-05-06 20:56 42.82794 -8.28819 31985 ft 463 kts 26°
2026-05-06 20:57 42.85689 -8.26918 32390 ft 461 kts 26°
2026-05-06 20:57 42.88574 -8.25022 32801 ft 460 kts 26°
2026-05-06 20:57 42.91461 -8.23122 33161 ft 460 kts 26°
2026-05-06 20:57 42.94312 -8.21243 33461 ft 460 kts 25°
2026-05-06 20:58 42.97200 -8.19338 33830 ft 459 kts 25°
2026-05-06 20:58 43.00074 -8.17439 34171 ft 458 kts 25°
2026-05-06 20:58 43.02957 -8.15533 34435 ft 458 kts 25°
2026-05-06 20:58 43.05821 -8.13638 34690 ft 458 kts 25°
2026-05-06 20:59 43.08695 -8.11733 34968 ft 458 kts 25°
2026-05-06 20:59 43.11566 -8.09829 35251 ft 457 kts 25°
2026-05-06 20:59 43.14388 -8.07956 35526 ft 456 kts 25°
2026-05-06 20:59 43.17238 -8.06061 35883 ft 454 kts 25°
2026-05-06 21:00 43.20086 -8.04167 36003 ft 457 kts 25°
2026-05-06 21:00 43.25831 -8.00339 36011 ft 460 kts 25°
2026-05-06 21:01 43.31553 -7.96518 36004 ft 453 kts 25°
2026-05-06 21:01 43.37205 -7.92735 36026 ft 451 kts 25°
2026-05-06 21:02 43.42871 -7.88936 36011 ft 451 kts 25°
2026-05-06 21:02 43.48511 -7.85146 36024 ft 451 kts 25°
2026-05-06 21:03 43.54159 -7.81344 36016 ft 451 kts 25°
2026-05-06 21:03 43.59763 -7.77562 36028 ft 451 kts 25°
2026-05-06 21:04 43.65416 -7.73740 36016 ft 451 kts 25°
2026-05-06 21:04 43.71066 -7.69911 36023 ft 451 kts 25°
2026-05-06 21:05 43.76679 -7.66099 36016 ft 451 kts 25°
2026-05-06 21:05 43.82323 -7.62259 36021 ft 451 kts 25°
2026-05-06 21:06 43.87964 -7.58412 36006 ft 451 kts 25°
2026-05-06 21:06 43.92648 -7.55212 36012 ft 451 kts 25°
2026-05-06 21:07 43.98278 -7.51358 36028 ft 451 kts 25°
2026-05-06 21:07 44.04831 -7.46862 36016 ft 451 kts 26°
2026-05-06 21:08 44.09549 -7.43617 36016 ft 451 kts 26°
2026-05-06 21:08 44.15146 -7.39761 36017 ft 451 kts 26°
2026-05-06 21:09 44.20809 -7.35851 36027 ft 451 kts 26°
2026-05-06 21:09 44.26397 -7.31985 36021 ft 451 kts 26°
2026-05-06 21:10 44.32026 -7.28082 36020 ft 451 kts 26°
2026-05-06 21:10 44.37652 -7.24173 36018 ft 451 kts 26°
2026-05-06 21:11 44.43274 -7.20257 36020 ft 451 kts 26°
2026-05-06 21:11 44.48849 -7.16367 36019 ft 451 kts 26°
2026-05-06 21:12 44.54457 -7.12445 36018 ft 450 kts 26°
2026-05-06 21:12 44.60066 -7.08513 36018 ft 450 kts 26°
2026-05-06 21:13 44.65665 -7.04581 36024 ft 450 kts 26°
2026-05-06 21:13 44.71265 -7.00639 36021 ft 450 kts 26°
2026-05-06 21:14 44.76857 -6.96695 36022 ft 449 kts 26°
2026-05-06 21:14 44.82413 -6.92768 36027 ft 449 kts 26°
2026-05-06 21:15 44.87917 -6.88544 36022 ft 449 kts 30°
2026-05-06 21:15 44.93305 -6.84048 36029 ft 449 kts 30°
2026-05-06 21:16 44.98680 -6.79545 36027 ft 449 kts 30°
2026-05-06 21:16 45.04042 -6.75091 36029 ft 449 kts 30°
2026-05-06 21:17 45.09440 -6.70622 36026 ft 449 kts 30°
2026-05-06 21:17 45.14821 -6.66164 36027 ft 449 kts 30°
2026-05-06 21:18 45.20188 -6.61707 36034 ft 448 kts 30°
2026-05-06 21:18 45.25574 -6.57222 36030 ft 448 kts 30°
2026-05-06 21:19 45.30951 -6.52735 36027 ft 448 kts 30°
2026-05-06 21:19 45.36329 -6.48238 36032 ft 448 kts 30°
2026-05-06 21:20 45.41697 -6.43738 36041 ft 448 kts 30°
2026-05-06 21:20 45.47067 -6.39226 36032 ft 448 kts 30°
2026-05-06 21:21 45.52429 -6.34712 36030 ft 447 kts 30°
2026-05-06 21:21 45.57786 -6.30192 36032 ft 447 kts 30°
2026-05-06 21:22 45.63104 -6.25694 36033 ft 447 kts 30°
2026-05-06 21:22 45.68460 -6.21154 36032 ft 447 kts 30°
2026-05-06 21:23 45.73810 -6.16609 36034 ft 447 kts 30°
2026-05-06 21:23 45.79158 -6.12055 36032 ft 447 kts 30°
2026-05-06 21:24 45.84501 -6.07496 36035 ft 446 kts 30°
2026-05-06 21:24 45.89830 -6.02938 36036 ft 446 kts 30°
2026-05-06 21:25 45.95129 -5.98395 36024 ft 446 kts 30°
2026-05-06 21:25 46.00460 -5.93815 36030 ft 446 kts 30°
2026-05-06 21:26 46.05780 -5.89234 36025 ft 446 kts 30°
2026-05-06 21:26 46.11102 -5.84641 36030 ft 445 kts 30°
2026-05-06 21:27 46.16411 -5.80048 36031 ft 445 kts 30°
2026-05-06 21:27 46.21698 -5.75465 36030 ft 444 kts 30°
2026-05-06 21:28 46.26997 -5.70860 36033 ft 444 kts 30°
2026-05-06 21:28 46.32292 -5.66248 36032 ft 444 kts 30°
2026-05-06 21:29 46.37589 -5.61624 36023 ft 444 kts 30°
2026-05-06 21:29 46.42846 -5.57025 36033 ft 444 kts 30°
2026-05-06 21:30 46.48139 -5.52384 36026 ft 443 kts 30°
2026-05-06 21:30 46.53428 -5.47736 36029 ft 443 kts 30°
2026-05-06 21:31 46.58699 -5.43094 36036 ft 443 kts 30°
2026-05-06 21:31 46.63931 -5.38474 36028 ft 443 kts 30°
2026-05-06 21:32 46.69200 -5.33811 36025 ft 443 kts 30°
2026-05-06 21:32 46.77096 -5.26807 36021 ft 442 kts 30°
2026-05-06 21:33 46.82352 -5.22131 36027 ft 442 kts 30°
2026-05-06 21:33 46.87607 -5.17447 36026 ft 442 kts 30°
2026-05-06 21:34 46.92867 -5.12746 36015 ft 443 kts 30°
2026-05-06 21:34 46.98091 -5.08067 36026 ft 443 kts 30°
2026-05-06 21:35 47.03343 -5.03352 36021 ft 443 kts 30°
2026-05-06 21:35 47.08599 -4.98623 36022 ft 443 kts 30°
2026-05-06 21:36 47.13867 -4.93871 36019 ft 443 kts 30°
2026-05-06 21:36 47.19087 -4.89151 36011 ft 443 kts 30°
2026-05-06 21:37 47.24334 -4.84397 36013 ft 443 kts 30°
2026-05-06 21:37 47.29577 -4.79633 36016 ft 443 kts 30°
2026-05-06 21:38 47.34818 -4.74861 36008 ft 443 kts 30°
2026-05-06 21:38 47.40058 -4.70079 36005 ft 443 kts 30°
2026-05-06 21:39 47.45298 -4.65286 36002 ft 442 kts 30°
2026-05-06 21:39 47.50500 -4.60515 36008 ft 442 kts 30°
2026-05-06 21:40 47.55722 -4.55715 35998 ft 442 kts 31°
2026-05-06 21:40 47.60966 -4.50884 35997 ft 442 kts 30°
2026-05-06 21:41 47.66154 -4.46094 35994 ft 442 kts 31°
2026-05-06 21:41 47.71374 -4.41262 35993 ft 442 kts 31°
2026-05-06 21:42 47.76598 -4.36417 36000 ft 442 kts 31°
2026-05-06 21:42 47.81872 -4.31679 36003 ft 441 kts 24°
2026-05-06 21:43 47.87641 -4.28734 36021 ft 438 kts 14°
2026-05-06 21:43 47.93525 -4.26320 36031 ft 438 kts 14°
2026-05-06 21:44 47.99374 -4.23888 36027 ft 438 kts 14°
2026-05-06 21:44 48.05243 -4.21391 36020 ft 438 kts 14°
2026-05-06 21:45 48.11116 -4.18866 36019 ft 438 kts 14°
2026-05-06 21:45 48.16979 -4.16334 36021 ft 438 kts 14°
2026-05-06 21:46 48.22845 -4.13797 36010 ft 438 kts 14°
2026-05-06 21:46 48.28701 -4.11259 36014 ft 438 kts 14°
2026-05-06 21:47 48.34549 -4.08718 36016 ft 437 kts 14°
2026-05-06 21:47 48.40358 -4.06189 36015 ft 437 kts 15°
2026-05-06 21:48 48.46208 -4.03636 36016 ft 437 kts 15°
2026-05-06 21:48 48.52046 -4.01081 35999 ft 437 kts 15°
2026-05-06 21:49 48.57884 -3.98521 35994 ft 436 kts 15°
2026-05-06 21:49 48.63711 -3.95960 35998 ft 436 kts 15°
2026-05-06 21:50 48.69536 -3.93393 35998 ft 436 kts 15°
2026-05-06 21:50 48.75363 -3.90819 36004 ft 436 kts 15°
2026-05-06 21:51 48.81183 -3.88243 36001 ft 436 kts 15°
2026-05-06 21:51 48.87000 -3.85662 36006 ft 435 kts 15°
2026-05-06 21:52 48.92817 -3.83075 36009 ft 435 kts 15°
2026-05-06 21:52 48.98674 -3.80774 35996 ft 434 kts
2026-05-06 21:53 49.04646 -3.80304 36009 ft 432 kts
2026-05-06 21:53 49.10665 -3.80043 36006 ft 432 kts
2026-05-06 21:54 49.16682 -3.79731 36005 ft 433 kts
2026-05-06 21:54 49.21694 -3.79436 36008 ft 433 kts
2026-05-06 21:55 49.27725 -3.79067 36013 ft 433 kts
2026-05-06 21:55 49.33755 -3.78697 36005 ft 434 kts
2026-05-06 21:56 49.39755 -3.78328 36015 ft 434 kts
2026-05-06 21:56 49.45800 -3.77957 36007 ft 434 kts
2026-05-06 21:57 49.51846 -3.77585 36007 ft 435 kts
2026-05-06 21:57 49.57889 -3.77213 36012 ft 435 kts
2026-05-06 21:58 49.63933 -3.76841 36007 ft 435 kts
2026-05-06 21:58 49.69976 -3.76465 36014 ft 435 kts
2026-05-06 21:59 49.76009 -3.75830 36007 ft 435 kts
2026-05-06 21:59 49.82022 -3.75052 36011 ft 435 kts
2026-05-06 22:00 49.88059 -3.74297 36013 ft 434 kts
2026-05-06 22:00 49.94090 -3.73570 36019 ft 434 kts
2026-05-06 22:01 50.00116 -3.72852 36013 ft 434 kts
2026-05-06 22:01 50.06134 -3.72134 36013 ft 433 kts
2026-05-06 22:02 50.12146 -3.71413 36015 ft 433 kts
2026-05-06 22:02 50.18122 -3.70696 36020 ft 433 kts
2026-05-06 22:03 50.24127 -3.69972 36015 ft 433 kts
2026-05-06 22:03 50.30138 -3.69247 36017 ft 433 kts
2026-05-06 22:04 50.36161 -3.68520 36017 ft 433 kts
2026-05-06 22:04 50.42130 -3.67791 36016 ft 433 kts
2026-05-06 22:05 50.48153 -3.66671 36023 ft 433 kts
2026-05-06 22:05 50.54084 -3.65488 36020 ft 433 kts
2026-05-06 22:06 50.60067 -3.64341 36025 ft 432 kts
2026-05-06 22:06 50.66044 -3.63202 36024 ft 433 kts
2026-05-06 22:07 50.72029 -3.62058 36023 ft 433 kts
2026-05-06 22:07 50.78014 -3.60908 36019 ft 433 kts
2026-05-06 22:08 50.83963 -3.59762 36026 ft 432 kts
2026-05-06 22:08 50.89937 -3.58608 36021 ft 432 kts
2026-05-06 22:09 50.95924 -3.57449 36017 ft 432 kts
2026-05-06 22:09 51.01869 -3.56295 36018 ft 432 kts
2026-05-06 22:10 51.07839 -3.55134 36023 ft 432 kts
2026-05-06 22:10 51.13811 -3.53970 36023 ft 432 kts
2026-05-06 22:11 51.19774 -3.52806 36014 ft 432 kts
2026-05-06 22:11 51.25737 -3.51635 36011 ft 432 kts
2026-05-06 22:12 51.31704 -3.50462 36022 ft 431 kts
2026-05-06 22:12 51.37668 -3.49289 36019 ft 431 kts
2026-05-06 22:13 51.43579 -3.48124 36020 ft 430 kts
2026-05-06 22:13 51.49535 -3.46948 36026 ft 430 kts
2026-05-06 22:14 51.55465 -3.45775 36033 ft 429 kts
2026-05-06 22:14 51.61324 -3.44612 36006 ft 415 kts
2026-05-06 22:15 51.64140 -3.44051 35997 ft 401 kts
2026-05-06 22:15 51.66865 -3.43507 35998 ft 387 kts
2026-05-06 22:15 51.72121 -3.42460 36030 ft 382 kts
2026-05-06 22:16 51.77420 -3.41403 36051 ft 385 kts
2026-05-06 22:16 51.82753 -3.40336 36048 ft 387 kts
2026-05-06 22:17 51.88114 -3.39260 36035 ft 389 kts
2026-05-06 22:17 51.93506 -3.38209 36023 ft 390 kts
2026-05-06 22:18 51.98850 -3.37729 35921 ft 380 kts
2026-05-06 22:18 52.01489 -3.37575 35338 ft 384 kts
2026-05-06 22:18 52.04165 -3.37419 34732 ft 391 kts
2026-05-06 22:19 52.06949 -3.37246 34152 ft 407 kts
2026-05-06 22:19 52.09786 -3.37057 33671 ft 404 kts
2026-05-06 22:19 52.12557 -3.36864 33484 ft 392 kts
2026-05-06 22:19 52.15220 -3.36673 33150 ft 384 kts
2026-05-06 22:20 52.17874 -3.36480 32627 ft 382 kts
2026-05-06 22:20 52.20530 -3.36286 32082 ft 380 kts
2026-05-06 22:20 52.23167 -3.36093 31566 ft 378 kts
2026-05-06 22:20 52.25784 -3.35901 31178 ft 373 kts
2026-05-06 22:21 52.28362 -3.35713 30783 ft 368 kts
2026-05-06 22:21 52.30913 -3.35526 30305 ft 366 kts
2026-05-06 22:21 52.33455 -3.35339 29748 ft 365 kts
2026-05-06 22:21 52.35985 -3.35154 29193 ft 363 kts
2026-05-06 22:22 52.38499 -3.34970 28644 ft 361 kts
2026-05-06 22:22 52.40972 -3.34789 28110 ft 359 kts
2026-05-06 22:22 52.43459 -3.34605 27589 ft 357 kts
2026-05-06 22:22 52.45934 -3.34422 27064 ft 355 kts
2026-05-06 22:23 52.48397 -3.34235 26565 ft 353 kts
2026-05-06 22:23 52.50847 -3.34044 26099 ft 351 kts
2026-05-06 22:23 52.53283 -3.33853 25617 ft 350 kts
2026-05-06 22:23 52.55710 -3.33664 25136 ft 349 kts
2026-05-06 22:24 52.58134 -3.33475 24668 ft 347 kts
2026-05-06 22:24 52.60543 -3.33286 24210 ft 346 kts
2026-05-06 22:24 52.62942 -3.32935 23756 ft 346 kts
2026-05-06 22:24 52.65233 -3.31891 23261 ft 346 kts 19°
2026-05-06 22:25 52.67477 -3.30501 22793 ft 343 kts 19°
2026-05-06 22:25 52.69703 -3.29121 22332 ft 340 kts 19°
2026-05-06 22:25 52.71918 -3.27771 21868 ft 338 kts 19°
2026-05-06 22:25 52.74122 -3.26447 21423 ft 336 kts 18°
2026-05-06 22:26 52.76318 -3.25138 20970 ft 334 kts 18°
2026-05-06 22:26 52.78491 -3.23844 20534 ft 332 kts 18°
2026-05-06 22:26 52.80665 -3.22549 20095 ft 330 kts 18°
2026-05-06 22:26 52.82822 -3.21263 19670 ft 329 kts 18°
2026-05-06 22:27 52.84968 -3.19980 19244 ft 327 kts 18°
2026-05-06 22:27 52.87099 -3.18703 18831 ft 325 kts 18°
2026-05-06 22:27 52.89200 -3.17490 18437 ft 323 kts 13°
2026-05-06 22:27 52.91396 -3.17028 17978 ft 318 kts
2026-05-06 22:28 52.93601 -3.16912 17554 ft 315 kts 359°
2026-05-06 22:28 52.95787 -3.16807 17123 ft 313 kts 360°
2026-05-06 22:28 52.97967 -3.16682 16746 ft 313 kts 360°
2026-05-06 22:28 53.00140 -3.16536 16449 ft 311 kts
2026-05-06 22:29 53.02299 -3.16373 16152 ft 309 kts
2026-05-06 22:29 53.04441 -3.16205 15820 ft 308 kts
2026-05-06 22:29 53.06551 -3.16037 15508 ft 306 kts
2026-05-06 22:29 53.08680 -3.15868 15190 ft 305 kts
2026-05-06 22:30 53.10793 -3.15700 14885 ft 303 kts
2026-05-06 22:30 53.12896 -3.15532 14568 ft 302 kts
2026-05-06 22:30 53.14991 -3.15366 14263 ft 301 kts
2026-05-06 22:30 53.17075 -3.15200 13963 ft 299 kts
2026-05-06 22:31 53.19156 -3.15035 13643 ft 298 kts
2026-05-06 22:31 53.21222 -3.14872 13335 ft 296 kts
2026-05-06 22:31 53.23289 -3.14708 12920 ft 298 kts
2026-05-06 22:31 53.25350 -3.14545 12621 ft 295 kts
2026-05-06 22:32 53.27395 -3.14382 12329 ft 293 kts
2026-05-06 22:32 53.29401 -3.14223 12052 ft 290 kts
2026-05-06 22:32 53.31411 -3.14063 11779 ft 288 kts
2026-05-06 22:32 53.33427 -3.13902 11525 ft 286 kts
2026-05-06 22:33 53.35381 -3.13745 11265 ft 284 kts
2026-05-06 22:33 53.37347 -3.13555 10997 ft 283 kts
2026-05-06 22:33 53.39179 -3.12372 10714 ft 287 kts 36°
2026-05-06 22:33 53.40526 -3.09862 10478 ft 289 kts 56°
2026-05-06 22:34 53.41554 -3.06965 10211 ft 289 kts 58°
2026-05-06 22:34 53.42519 -3.04103 9934 ft 284 kts 59°
2026-05-06 22:34 53.43491 -3.01214 9631 ft 278 kts 59°
2026-05-06 22:34 53.44426 -2.98453 9348 ft 272 kts 58°
2026-05-06 22:35 53.45354 -2.95732 9117 ft 265 kts 59°
2026-05-06 22:35 53.46273 -2.93053 8851 ft 265 kts 59°
2026-05-06 22:35 53.47183 -2.90407 8596 ft 262 kts 58°
2026-05-06 22:35 53.48091 -2.87774 8366 ft 259 kts 59°
2026-05-06 22:36 53.48985 -2.85180 8124 ft 255 kts 59°
2026-05-06 22:36 53.49869 -2.82610 7893 ft 253 kts 59°
2026-05-06 22:36 53.50748 -2.80052 7667 ft 252 kts 59°
2026-05-06 22:36 53.51628 -2.77489 7438 ft 254 kts 59°
2026-05-06 22:37 53.52209 -2.74734 7177 ft 256 kts 88°
2026-05-06 22:37 53.51844 -2.71904 6960 ft 245 kts 121°
2026-05-06 22:37 53.50751 -2.69856 6795 ft 229 kts 148°
2026-05-06 22:37 53.49366 -2.68698 6616 ft 219 kts 163°
2026-05-06 22:38 53.47930 -2.67901 6473 ft 216 kts 167°
2026-05-06 22:38 53.46495 -2.67156 6328 ft 215 kts 166°
2026-05-06 22:38 53.45060 -2.66414 6175 ft 216 kts 166°
2026-05-06 22:38 53.43628 -2.65666 6032 ft 215 kts 166°
2026-05-06 22:39 53.42227 -2.64928 5864 ft 205 kts 166°
2026-05-06 22:39 53.40909 -2.64226 5715 ft 194 kts 167°
2026-05-06 22:39 53.39635 -2.63549 5584 ft 191 kts 167°
2026-05-06 22:39 53.38382 -2.62886 5453 ft 190 kts 167°
2026-05-06 22:40 53.37131 -2.62220 5313 ft 188 kts 167°
2026-05-06 22:40 53.35895 -2.61563 5167 ft 186 kts 167°
2026-05-06 22:40 53.34651 -2.60904 5000 ft 187 kts 165°
2026-05-06 22:40 53.33418 -2.60236 4845 ft 185 kts 166°
2026-05-06 22:41 53.31042 -2.58600 4553 ft 184 kts 160°
2026-05-06 22:41 53.29878 -2.57744 4418 ft 182 kts 160°
2026-05-06 22:41 53.28731 -2.56902 4281 ft 179 kts 160°
2026-05-06 22:42 53.27592 -2.56085 4143 ft 177 kts 160°
2026-05-06 22:42 53.26432 -2.55317 4023 ft 182 kts 160°
2026-05-06 22:42 53.25652 -2.54764 3946 ft 186 kts 150°
2026-05-06 22:42 53.24806 -2.53143 3807 ft 189 kts 111°
2026-05-06 22:43 53.24839 -2.50300 3784 ft 184 kts 79°
2026-05-06 22:43 53.25219 -2.48249 3743 ft 189 kts 59°
2026-05-06 22:43 53.26130 -2.46584 3561 ft 198 kts 47°
2026-05-06 22:43 53.26725 -2.45430 3395 ft 198 kts 53°
2026-05-06 22:44 53.27569 -2.43640 3130 ft 195 kts 53°
2026-05-06 22:44 53.28645 -2.42361 2996 ft 191 kts 17°
2026-05-06 22:44 53.29938 -2.42500 2998 ft 189 kts 335°
2026-05-06 22:44 53.30950 -2.43866 2991 ft 192 kts 300°
2026-05-06 22:45 53.31251 -2.46004 2999 ft 190 kts 262°
2026-05-06 22:45 53.31089 -2.48202 2997 ft 192 kts 260°
2026-05-06 22:45 53.30908 -2.50412 2994 ft 191 kts 258°
2026-05-06 22:45 53.30445 -2.52450 2978 ft 186 kts 229°
2026-05-06 22:46 53.29645 -2.54142 2985 ft 186 kts 230°
2026-05-06 22:46 53.28861 -2.55856 2982 ft 185 kts 229°
2026-05-06 22:46 53.28071 -2.57571 2842 ft 187 kts 223°
2026-05-06 22:46 53.27008 -2.58571 2624 ft 175 kts 184°
2026-05-06 22:47 53.25846 -2.58226 2546 ft 169 kts 159°
2026-05-06 22:47 53.24732 -2.57543 2508 ft 173 kts 160°
2026-05-06 22:47 53.23601 -2.56847 2482 ft 172 kts 155°
2026-05-06 22:47 53.22788 -2.55494 2463 ft 171 kts 108°
2026-05-06 22:48 53.22930 -2.53563 2493 ft 176 kts 59°
2026-05-06 22:48 53.23652 -2.51923 2485 ft 175 kts 58°
2026-05-06 22:48 53.24317 -2.50233 2481 ft 173 kts 70°
2026-05-06 22:48 53.24346 -2.48328 2492 ft 163 kts 115°
2026-05-06 22:49 53.23565 -2.47017 2493 ft 169 kts 157°
2026-05-06 22:49 53.22425 -2.46341 2489 ft 176 kts 160°
2026-05-06 22:49 53.21255 -2.45714 2484 ft 178 kts 169°
2026-05-06 22:49 53.20038 -2.46011 2504 ft 180 kts 199°
2026-05-06 22:50 53.18896 -2.46809 2479 ft 180 kts 200°
2026-05-06 22:50 53.17743 -2.47612 2468 ft 179 kts 200°
2026-05-06 22:50 53.16596 -2.48405 2478 ft 179 kts 202°
2026-05-06 22:50 53.15658 -2.49751 2479 ft 184 kts 239°
2026-05-06 22:51 53.15463 -2.51854 2470 ft 191 kts 281°
2026-05-06 22:51 53.16149 -2.53758 2488 ft 196 kts 322°
2026-05-06 22:51 53.17355 -2.54807 2497 ft 196 kts 339°
2026-05-06 22:51 53.18635 -2.55591 2461 ft 197 kts 349°
2026-05-06 22:52 53.19966 -2.55426 2493 ft 192 kts 18°
2026-05-06 22:52 53.21254 -2.54814 2486 ft 193 kts 20°
2026-05-06 22:52 53.22464 -2.53914 2458 ft 188 kts 44°
2026-05-06 22:52 53.23351 -2.52355 2481 ft 185 kts 54°
2026-05-06 22:53 53.24159 -2.50696 2490 ft 184 kts 55°
2026-05-06 22:53 53.24959 -2.49029 2486 ft 184 kts 55°
2026-05-06 22:53 53.25761 -2.47362 2474 ft 184 kts 54°
2026-05-06 22:53 53.26564 -2.45696 2484 ft 183 kts 54°
2026-05-06 22:54 53.27355 -2.44059 2491 ft 183 kts 55°
2026-05-06 22:54 53.28160 -2.42393 2380 ft 186 kts 55°
2026-05-06 22:54 53.28958 -2.40745 2135 ft 177 kts 54°
2026-05-06 22:54 53.29703 -2.39206 1917 ft 165 kts 55°
2026-05-06 22:55 53.30401 -2.37761 1691 ft 158 kts 56°
2026-05-06 22:55 53.31084 -2.36346 1473 ft 156 kts 56°
2026-05-06 22:55 53.31758 -2.34954 1259 ft 149 kts 55°
2026-05-06 22:55 53.32397 -2.33633 1029 ft 144 kts 55°
2026-05-06 22:56 53.33012 -2.32362 837 ft 138 kts 56°
2026-05-06 22:56 53.33633 -2.31082 643 ft 144 kts 52°
2026-05-06 22:56 53.34262 -2.29749 401 ft 149 kts 52°
2026-05-06 22:56 53.34927 -2.28430 241 ft 146 kts 52°
2026-05-06 22:57 53.35480 -2.27283 248 ft 98 kts 53°
2026-05-06 22:57 53.35774 -2.26670 268 ft 37 kts 50°
2026-05-06 22:57 53.35823 -2.26568 269 ft 3 kts 52°
2026-05-06 22:57 53.35875 -2.26459 268 ft 20 kts 51°
2026-05-06 22:58 53.35973 -2.26255 261 ft 16 kts 51°
2026-05-06 22:58 53.36034 -2.26150 257 ft 12 kts 21°
2026-05-06 22:58 53.36107 -2.26209 254 ft 13 kts 318°
2026-05-06 22:58 53.36140 -2.26281 254 ft 7 kts 281°
2026-05-06 22:59 53.36118 -2.26356 255 ft 8 kts 226°
2026-05-06 22:59 53.36081 -2.26444 255 ft 10 kts 232°
2026-05-06 22:59 53.36032 -2.26547 255 ft 12 kts 230°
2026-05-06 22:59 53.35975 -2.26666 255 ft 14 kts 232°
2026-05-06 23:00 53.35922 -2.26780 255 ft 11 kts 236°
2026-05-06 23:00 53.35880 -2.26882 255 ft 10 kts 233°
2026-05-06 23:00 53.35836 -2.26976 255 ft 10 kts 232°
2026-05-06 23:00 53.35801 -2.27077 254 ft 10 kts 237°
2026-05-06 23:01 53.35760 -2.27167 254 ft 10 kts 231°
2026-05-06 23:01 53.35718 -2.27252 254 ft 9 kts 231°
2026-05-06 23:01 53.35675 -2.27339 254 ft 10 kts 231°
2026-05-06 23:01 53.35622 -2.27454 245 ft 12 kts 240°
2026-05-06 23:02 53.35650 -2.27565 245 ft 12 kts 321°
2026-05-06 23:02 53.35719 -2.27631 247 ft 11 kts 339°
2026-05-06 23:02 53.35788 -2.27689 250 ft 11 kts 318°
2026-05-06 23:02 53.35839 -2.27783 251 ft 11 kts 311°
2026-05-06 23:03 53.35899 -2.27848 254 ft 10 kts 353°
2026-05-06 23:03 53.35969 -2.27873 254 ft 11 kts 332°
2026-05-06 23:03 53.36026 -2.27952 254 ft 11 kts 318°
2026-05-06 23:03 53.36085 -2.28039 254 ft 12 kts 319°
2026-05-06 23:04 53.36146 -2.28132 254 ft 12 kts 312°
2026-05-06 23:04 53.36203 -2.28231 254 ft 12 kts 314°
2026-05-06 23:04 53.36260 -2.28325 254 ft 12 kts 316°
2026-05-06 23:04 53.36315 -2.28420 254 ft 11 kts 313°
2026-05-06 23:05 53.36382 -2.28477 254 ft 11 kts 355°
2026-05-06 23:05 53.36451 -2.28534 254 ft 11 kts 315°
2026-05-06 23:05 53.36503 -2.28627 254 ft 11 kts 315°
2026-05-06 23:05 53.36556 -2.28715 254 ft 10 kts 314°
2026-05-06 23:06 53.36612 -2.28785 254 ft 10 kts 353°
2026-05-06 23:06 53.36654 -2.28698 254 ft 10 kts 56°
2026-05-06 23:06 53.36701 -2.28613 254 ft 10 kts 45°
2026-05-06 23:06 53.36750 -2.28534 254 ft 10 kts 44°
2026-05-06 23:07 53.36782 -2.28480 254 ft 5 kts 44°
2026-05-06 23:07 53.36784 -2.28432 254 ft 5 kts 131°
2026-05-06 23:07 53.36774 -2.28415 254 ft 1 kts 137°
2026-05-06 23:07 53.36767 -2.28404 254 ft 2 kts 135°
2026-05-06 23:08 53.36763 -2.28397 254 ft 0 kts 135°